User: anonymous   Login
Location: Unspecified
(0.0000°N, 0.0000°E)
Time: 00:00:27
(UTC+00:00)
Language:

OBJECT D - Orbit

View from above orbital plane
View from above orbital plane
View from above satellite
View from above satellite

Ground track
Ground track

The orbit is defined by the following mean orbital elements,

1 63294U          26145.59007206 +.00000000 +00000-0 +43325-3 0 00004
2 63294  97.6489 285.1922 0014732 212.3880 147.6450 15.16226701    07
Epoch (UTC): 25 May 2026 14:09:42
Eccentricity: 0.0014732
inclination: 97.6489°
perigee height: 507 km
apogee height: 527 km
right ascension of ascending node: 285.1922°
argument of perigee: 212.3880°
revolutions per day: 15.16226701
mean anomaly at epoch: 147.6450°

The dashed part of the orbit path shows where the satellite is in the earth's shadow,  

DLR